Previsão horária em Juan les Pins

Hoje, 24 Junho, Quinta-feira

Tempo Temperatura Precipitação Vento Pressão Humidade
00:00 +21°C° 0 mm 3 m/s 761 mmHg 64%
01:00 +21°C° 0 mm 2 m/s 761 mmHg 64%
02:00 +21°C° 0 mm 2 m/s 761 mmHg 64%
03:00 +20°C° 0 mm 2 m/s 761 mmHg 64%
04:00 +23°C° 0 mm 2 m/s 761 mmHg 60%
05:00 +24°C° 0 mm 2 m/s 761 mmHg 56%
06:00 +25°C° 0 mm 2 m/s 761 mmHg 53%
07:00 +27°C° 0 mm 2 m/s 762 mmHg 47%
08:00 +28°C° 0 mm 3 m/s 762 mmHg 42%
09:00 +29°C° 0 mm 4 m/s 762 mmHg 37%
10:00 +30°C° 0 mm 5 m/s 762 mmHg 36%
11:00 +30°C° 0 mm 6 m/s 762 mmHg 35%
12:00 +32°C° 0 mm 7 m/s 762 mmHg 35%
13:00 +32°C° 0 mm 7 m/s 761 mmHg 35%
14:00 +32°C° 0 mm 7 m/s 761 mmHg 35%
15:00 +32°C° 0 mm 7 m/s 761 mmHg 36%
16:00 +30°C° 0 mm 7 m/s 761 mmHg 39%
17:00 +29°C° 0 mm 7 m/s 760 mmHg 41%
18:00 +28°C° 0 mm 7 m/s 760 mmHg 44%
19:00 +27°C° 0 mm 6 m/s 760 mmHg 49%
20:00 +24°C° 0 mm 6 m/s 761 mmHg 54%
21:00 +22°C° 0 mm 5 m/s 761 mmHg 59%
22:00 +21°C° 0 mm 5 m/s 761 mmHg 60%
23:00 +21°C° 0 mm 4 m/s 761 mmHg 62%

Amanhã, 25 Junho, Sexta-feira

Tempo Temperatura Precipitação Vento Pressão Humidade
00:00 +20°C° 0 mm 4 m/s 761 mmHg 63%
01:00 +20°C° 0 mm 4 m/s 761 mmHg 63%
02:00 +20°C° 0 mm 4 m/s 760 mmHg 62%
03:00 +20°C° 0 mm 3 m/s 760 mmHg 62%
04:00 +21°C° 0 mm 3 m/s 760 mmHg 59%
05:00 +23°C° 0 mm 2 m/s 760 mmHg 56%
06:00 +24°C° 0 mm 2 m/s 761 mmHg 54%
07:00 +26°C° 0 mm 2 m/s 761 mmHg 51%
08:00 +27°C° 0 mm 2 m/s 761 mmHg 48%
09:00 +28°C° 0 mm 2 m/s 761 mmHg 45%
10:00 +29°C° 0 mm 3 m/s 760 mmHg 46%
11:00 +29°C° 0 mm 3 m/s 760 mmHg 46%
12:00 +30°C° 0 mm 3 m/s 760 mmHg 46%
13:00 +30°C° 0 mm 3 m/s 760 mmHg 47%
14:00 +30°C° 0 mm 4 m/s 760 mmHg 47%
15:00 +30°C° 0 mm 4 m/s 760 mmHg 47%
16:00 +29°C° 0 mm 4 m/s 759 mmHg 51%
17:00 +28°C° 0 mm 4 m/s 759 mmHg 54%
18:00 +28°C° 0 mm 3 m/s 759 mmHg 57%
19:00 +26°C° 0 mm 3 m/s 760 mmHg 63%
20:00 +24°C° 0 mm 3 m/s 760 mmHg 69%
21:00 +22°C° 0 mm 3 m/s 761 mmHg 76%
22:00 +21°C° 0 mm 3 m/s 761 mmHg 74%
23:00 +21°C° 0 mm 3 m/s 761 mmHg 72%

Depois de amanhã, 26 Junho, Sábado

Tempo Temperatura Precipitação Vento Pressão Humidade
00:00 +20°C° 0 mm 2 m/s 761 mmHg 70%
01:00 +20°C° 0 mm 2 m/s 761 mmHg 68%
02:00 +20°C° 0 mm 2 m/s 761 mmHg 67%
03:00 +19°C° 0 mm 2 m/s 761 mmHg 65%
04:00 +22°C° 0 mm 1 m/s 761 mmHg 61%
05:00 +23°C° 0 mm 1 m/s 761 mmHg 56%
06:00 +24°C° 0 mm 1 m/s 761 mmHg 52%
07:00 +26°C° 0 mm 1 m/s 761 mmHg 48%
08:00 +28°C° 0 mm 2 m/s 761 mmHg 44%
09:00 +29°C° 0 mm 2 m/s 761 mmHg 39%
10:00 +30°C° 0 mm 2 m/s 761 mmHg 42%
11:00 +30°C° 0 mm 3 m/s 761 mmHg 44%
12:00 +30°C° 0 mm 4 m/s 761 mmHg 47%
13:00 +30°C° 0 mm 3 m/s 761 mmHg 51%
14:00 +29°C° 0 mm 3 m/s 761 mmHg 54%
15:00 +29°C° 0 mm 2 m/s 761 mmHg 58%
16:00 +28°C° 0 mm 2 m/s 761 mmHg 62%
17:00 +28°C° 0 mm 1 m/s 761 mmHg 66%
18:00 +27°C° 0 mm 1 m/s 760 mmHg 70%
19:00 +26°C° 0 mm 1 m/s 760 mmHg 74%
20:00 +25°C° 0 mm 1 m/s 761 mmHg 79%
21:00 +24°C° 0 mm 1 m/s 761 mmHg 83%
22:00 +23°C° 0 mm 1 m/s 761 mmHg 83%
23:00 +23°C° 0 mm 1 m/s 761 mmHg 82%

27 Junho, Domingo

Tempo Temperatura Precipitação Vento Pressão Humidade
00:00 +23°C° 0 mm 1 m/s 761 mmHg 82%
01:00 +23°C° 0 mm 1 m/s 760 mmHg 80%
02:00 +23°C° 0 mm 1 m/s 760 mmHg 78%
03:00 +23°C° 0 mm 1 m/s 760 mmHg 77%
04:00 +24°C° 0 mm 2 m/s 760 mmHg 72%
05:00 +25°C° 0 mm 3 m/s 760 mmHg 67%
06:00 +26°C° 0 mm 3 m/s 759 mmHg 62%
07:00 +28°C° 0 mm 4 m/s 759 mmHg 58%
08:00 +29°C° 0 mm 4 m/s 759 mmHg 54%
09:00 +30°C° 0 mm 5 m/s 759 mmHg 51%
10:00 +32°C° 0 mm 5 m/s 759 mmHg 48%
11:00 +32°C° 0 mm 5 m/s 759 mmHg 45%
12:00 +33°C° 0 mm 5 m/s 759 mmHg 42%
13:00 +33°C° 0 mm 4 m/s 759 mmHg 41%
14:00 +33°C° 0 mm 4 m/s 759 mmHg 39%
15:00 +34°C° 0 mm 4 m/s 759 mmHg 38%
16:00 +32°C° 0 mm 4 m/s 759 mmHg 44%
17:00 +30°C° 0 mm 4 m/s 758 mmHg 49%
18:00 +29°C° 0 mm 4 m/s 758 mmHg 55%
19:00 +28°C° 0 mm 3 m/s 759 mmHg 58%
20:00 +26°C° 0 mm 3 m/s 759 mmHg 61%
21:00 +25°C° 0 mm 3 m/s 759 mmHg 64%
22:00 +25°C° 0 mm 2 m/s 759 mmHg 64%
23:00 +24°C° 0 mm 2 m/s 759 mmHg 64%

28 Junho, Segunda-feira

Tempo Temperatura Precipitação Vento Pressão Humidade
00:00 +24°C° 0 mm 1 m/s 759 mmHg 63%
01:00 +24°C° 0 mm 2 m/s 759 mmHg 64%
02:00 +23°C° 0 mm 2 m/s 759 mmHg 64%
03:00 +22°C° 0 mm 3 m/s 759 mmHg 64%
04:00 +25°C° 0 mm 3 m/s 759 mmHg 61%
05:00 +26°C° 0 mm 3 m/s 759 mmHg 58%
06:00 +27°C° 0 mm 3 m/s 760 mmHg 55%
07:00 +28°C° 0 mm 3 m/s 760 mmHg 51%
08:00 +30°C° 0 mm 4 m/s 760 mmHg 47%
09:00 +32°C° 0 mm 4 m/s 760 mmHg 43%
10:00 +31°C° 0 mm 3 m/s 760 mmHg 43%
11:00 +31°C° 0 mm 3 m/s 760 mmHg 43%
12:00 +32°C° 0 mm 2 m/s 760 mmHg 44%
13:00 +32°C° 0 mm 2 m/s 760 mmHg 43%
14:00 +32°C° 0 mm 2 m/s 760 mmHg 43%
15:00 +32°C° 0 mm 1 m/s 760 mmHg 43%
16:00 +31°C° 0 mm 1 m/s 760 mmHg 48%
17:00 +30°C° 0 mm 1 m/s 760 mmHg 53%
18:00 +29°C° 0 mm 1 m/s 759 mmHg 58%
19:00 +27°C° 0 mm 2 m/s 760 mmHg 63%
20:00 +26°C° 0 mm 2 m/s 760 mmHg 69%
21:00 +24°C° 0 mm 2 m/s 760 mmHg 75%
22:00 +24°C° 0 mm 2 m/s 760 mmHg 74%
23:00 +24°C° 0 mm 2 m/s 760 mmHg 73%

29 Junho, Terça-feira

Tempo Temperatura Precipitação Vento Pressão Humidade
00:00 +23°C° 0 mm 2 m/s 760 mmHg 72%
01:00 +23°C° 0 mm 2 m/s 760 mmHg 72%
02:00 +23°C° 0 mm 2 m/s 760 mmHg 72%
03:00 +23°C° 0 mm 2 m/s 759 mmHg 72%
04:00 +24°C° 0 mm 2 m/s 759 mmHg 68%
05:00 +25°C° 0 mm 2 m/s 760 mmHg 63%
06:00 +26°C° 0 mm 2 m/s 760 mmHg 58%
07:00 +27°C° 0 mm 2 m/s 760 mmHg 54%
08:00 +29°C° 0 mm 2 m/s 760 mmHg 49%
09:00 +30°C° 0 mm 3 m/s 760 mmHg 44%
10:00 +31°C° 0 mm 3 m/s 760 mmHg 42%
11:00 +33°C° 0 mm 4 m/s 760 mmHg 40%
12:00 +33°C° 0 mm 5 m/s 759 mmHg 38%
13:00 +33°C° 0 mm 5 m/s 759 mmHg 37%
14:00 +33°C° 0 mm 6 m/s 759 mmHg 35%
15:00 +33°C° 0 mm 6 m/s 759 mmHg 34%
16:00 +32°C° 0 mm 6 m/s 759 mmHg 36%
17:00 +32°C° 0 mm 5 m/s 759 mmHg 37%
18:00 +30°C° 0 mm 4 m/s 759 mmHg 39%
19:00 +28°C° 0 mm 5 m/s 759 mmHg 44%
20:00 +26°C° 0 mm 5 m/s 760 mmHg 49%
21:00 +25°C° 0 mm 5 m/s 760 mmHg 54%
22:00 +23°C° 0 mm 5 m/s 760 mmHg 53%
23:00 +22°C° 0 mm 4 m/s 760 mmHg 52%
Mostrar mais

Necessitamos do seu Consentimento

A Meteoprog e os seus Fornecedores de Serviços podem armazenar e aceder a dados pessoais como cookies, identificadores do dispositivo ou outras tecnologias semelhantes existentes no seu dispositivo e processar estes dados para personalizar conteúdos e anúncios, assim como funcionalidades nas redes sociais e análise de tráfego.

  • Armazenar e/ou aceder a informações no seu dispositivo

    Os cookies, identificadores do dispositivo ou outras informações podem ser armazenados ou acedidos no seu dispositivo, para os fins acima indicados.

  • Anúncios e conteúdos personalizados, medição de anúncios e conteúdos, dados sobre o público-alvo e desenvolvimento de produtos

    Os anúncios e os conteúdos podem ser personalizados com base num perfil. Podem ser adicionados dados adicionais para uma maior personalização dos anúncios e dos conteúdos. A eficácia dos anúncios e dos conteúdos pode ser medida. Podem ser obtidas informações sobre o público que visualizou os anúncios e os conteúdos. Estes dados podem ser usados para desenvolver ou melhorar sistemas, softwares ou a experiência do utilizador.

Ao clicar em "Eu concordo”, permitirá o uso de cookies, identificadores do dispositivo e web beacons mencionados ou outras tecnologias semelhantes. As configurações do navegador do seu dispositivo podem ser alteradas.

Para certos fins, podem ser invocados interesses legítimos ao invés de consentimento. Pode ler mais informação sobre este assunto na nossa Política de Privacidade e Cookies.